Redmond, OR

9:52 AM PST on December 16, 2017 (GMT -0800)
Roberts Field Airport

Weather History for KRDM - April, 2013

Change the Weather History Date:

Friday, April 19, 2013

  Actual Average Record
Temperature  
Mean Temperature 48 °F 45 °F  
Max Temperature 60 °F 60 °F 83 °F (2016)
Min Temperature 36 °F 29 °F 13 °F (1964)
Degree Days  
Heating Degree Days 17 20  
Month to date heating degree days 418 411  
Since 1 July heating degree days 5643 5862  
Cooling Degree Days 0 0  
Month to date cooling degree days 0 0  
Year to date cooling degree days 0 0  
Moisture  
Dew Point 37 °F    
Average Humidity 65    
Maximum Humidity 89    
Minimum Humidity 40    
Precipitation  
Precipitation 0.02 in 0.03 in 0.21 in (1981)
Month to date precipitation 0.10 0.44  
Year to date precipitation 0.85 2.72  
Sea Level Pressure  
Sea Level Pressure 30.17 in    
Wind  
Wind Speed 11 mph (West)    
Max Wind Speed 35 mph    
Max Gust Speed 45 mph    
Visibility 10 miles    
Events Rain    
T = Trace of Precipitation, MM = Missing Value Source: NWS Daily Summary

Daily Weather History Graph

Daily Weather History Graph

Search for Another Location

Airport or City:

Trip Planner

Search our weather history database for the weather conditions in past years. The results will help you decide how hot, cold, wet, or windy it might be!

Date:

Astronomy

Apr. 19, 2013 Rise Set
Actual Time 6:13 AM PDT 7:54 PM PDT
Civil Twilight 5:43 AM PDT 8:25 PM PDT
Nautical Twilight 5:06 AM PDT 9:02 PM PDT
Astronomical Twilight 4:26 AM PDT 9:42 PM PDT
Moon 1:30 PM PDT (4/19) 2:46 AM PDT (4/19)
Length of Visible Light 14h 41m
Length of Day
13h 40m
Waxing Gibbous, 62% of the Moon is Illuminated
Apr 19
Waxing Gibbous
Apr 25
Full
May 2
Last Quarter
May 9
New
May 17
First Quarter

Hourly Weather History & Observations

Time (PDT) Temp. Windchill Dew Point Humidity Pressure Visibility Wind Dir Wind Speed Gust Speed Precip Events Conditions
12:56 AM 44.1 °F 41.5 °F 37.0 °F 76% 30.27 in 10.0 mi SSE 4.6 mph - 0.00 in   Overcast
1:56 AM 45.0 °F 43.5 °F 37.0 °F 74% 30.25 in 10.0 mi SE 3.5 mph - N/A   Overcast
2:56 AM 44.1 °F 42.5 °F 37.9 °F 79% 30.23 in 10.0 mi ESE 3.5 mph - 0.00 in   Overcast
3:56 AM 44.1 °F - 39.0 °F 82% 30.21 in 10.0 mi Calm Calm - N/A   Overcast
4:56 AM 44.1 °F - 39.0 °F 82% 30.19 in 10.0 mi Calm Calm - N/A   Overcast
5:56 AM 43.0 °F 40.3 °F 39.9 °F 89% 30.17 in 10.0 mi NE 4.6 mph - N/A   Overcast
6:56 AM 42.1 °F - 39.0 °F 89% 30.16 in 10.0 mi Calm Calm - N/A   Overcast
7:56 AM 48.0 °F - 37.9 °F 68% 30.15 in 10.0 mi Calm Calm - N/A   Overcast
8:56 AM 46.9 °F - 42.1 °F 83% 30.16 in 4.0 mi West 5.8 mph - 0.01 in Rain Light Rain
9:56 AM 48.9 °F - 43.0 °F 80% 30.13 in 10.0 mi South 3.5 mph - 0.01 in Rain Light Rain
10:56 AM 51.1 °F - 42.1 °F 71% 30.14 in 10.0 mi NW 3.5 mph - 0.00 in   Mostly Cloudy
11:56 AM 55.0 °F - 37.0 °F 51% 30.12 in 10.0 mi West 17.3 mph 28.8 mph N/A   Mostly Cloudy
12:56 PM 57.9 °F - 36.0 °F 44% 30.11 in 10.0 mi WNW 27.6 mph 35.7 mph N/A   Scattered Clouds
1:56 PM 59.0 °F - 36.0 °F 42% 30.11 in 10.0 mi West 29.9 mph 40.3 mph N/A   Clear
2:56 PM 59.0 °F - 35.1 °F 41% 30.10 in 10.0 mi WNW 26.5 mph 35.7 mph N/A   Partly Cloudy
3:56 PM 57.9 °F - 34.0 °F 41% 30.12 in 10.0 mi WNW 21.9 mph 36.8 mph N/A   Scattered Clouds
4:56 PM 57.0 °F - 33.1 °F 40% 30.13 in 10.0 mi West 24.2 mph 32.2 mph N/A   Scattered Clouds
5:56 PM 53.1 °F - 35.1 °F 50% 30.16 in 10.0 mi WNW 20.7 mph 27.6 mph N/A   Mostly Cloudy
6:56 PM 51.1 °F - 33.1 °F 50% 30.17 in 10.0 mi WNW 19.6 mph 27.6 mph N/A   Scattered Clouds
7:56 PM 46.9 °F - 34.0 °F 61% 30.16 in 10.0 mi WNW 21.9 mph 27.6 mph N/A   Clear
8:56 PM 46.0 °F 39.0 °F 33.1 °F 61% 30.19 in 10.0 mi WNW 17.3 mph 25.3 mph N/A   Clear
9:56 PM 44.1 °F 40.1 °F 34.0 °F 68% 30.22 in 10.0 mi WNW 6.9 mph - N/A   Clear
10:56 PM 43.0 °F 37.2 °F 34.0 °F 71% 30.23 in 10.0 mi West 10.4 mph - N/A   Clear
11:56 PM 42.1 °F 39.2 °F 33.1 °F 70% 30.22 in 10.0 mi West 4.6 mph - N/A   Clear